Probability
0 0 0 0 0 0 0 0 0 0 0 0 0 0 0 0 0 0 0 0 0 0 0 0 0 0 0 0 0 0 0 0 0 0 0 0 0 0 0 0 0 0 0 0 0 0 0 0 0
0 0 0 0 0 0 0 0 0 0 0 0 0 0 0 0 0 0 0 0 0 0 0 0 0 0 0 0 0 0 0 0 0 0 0 0 0 0 0 0 0 0 0 0 0 0 0 0 0
0 0 0 0 0 0 0 0 0 0 0 0 0 0 0 0 0 0 0 0 0 0 0 0 0 0 0 0 0 0 0 0 0 0 0 0 0 0 0 0 0 0 0 0 0 0 0 0 0
0 0 0 0 0 0 0 0 0 0 0 0 0 0 0 0 0 0 0 0 0 0 0 0 0 0 0 0 0 0 0 0 0 0 0 0 0 0 0 0 0 0 0 0 0 0 0 0 0
0 0 0 0 0 0 0 0 0 0 0 0 0 0 0 0 0 0 0 0 0 0 0 0 0 0 0 0 0 0 0 0 0 0 0 0 0 0 0 0 0 0 0 0 0 0 0 0 0
0 0 0 0 0 0 0 0 0 0 0 0 0 0 0 0 0 0 0 0 0 0 0 0 0 0 0 0 0 0 0 0 0 0 0 0 0 0 0 0 0 0 0 0 0 0 0 0 0
0 0 0 0 0 0 0 0 0 0 0 0 0 0 0 0 0 0 0 0 0 0 0 0 0 0 0 0 0 0 0 0 0 0 0 0 0 0 0 0 0 0 0 0 0 0 0 0 0
0 0 0 0 0 0 0 0 0 0 0 0 0 0 0 0 0 0 0 0 0 0 0 0 0 0 0 0 0 0 0 0 0 0 0 0 0 0 0 0 0 0 0 0 0 0 0 0 0
0 0 0 0 0 0 0 0 0 0 0 0 0 0 0 0 0 0 0 0 0 0 0 0 0 0 0 0 0 0 0 0 0 0 0 0 0 0 0 0 0 0 0 0 0 0 0 0 0
0 0 0 0 0 0 0 0 0 0 0 0 0 0 0 0 0 0 0 0 0 0 0 0 0 0 0 0 0 0 0 0 0 0 0 0 0 0 0 0 0 0 0 0 0 0 0 0 0
0 0 0 0 0 0 0 0 0 0 0 0 0 0 0 0 0 0 0 0 0 0 0 0 0 0 0 0 0 0 0 0 0 0 0 0 0 0 0 0 0 0 0 0 0 0 0 0 0
0 0 0 0 0 0 0 0 0 0 0 0 0 0 0 0 0 0 0 0 0 0 0 0 0 0 0 0 0 0 0 0 0 0 0 0 0 0 0 0 0 0 0 0 0 0 0 0 0
0 0 0 0 0 0 0 0 0 0 0 0 0 0 0 0 0 0 0 0 0 0 0 0 0 0 0 0 0 0 0 0 0 0 0 0 0 0 0 0 0 0 0 0 0 0 0 0 0
0 0 0 0 0 0 0 0 0 0 0 0 0 0 0 0 0 0 0 0 0 0 0 0 0 0 0 0 0 0 0 0 0 0 0 0 0 0 0 0 0 0 0 0 0 0 0 0 0
0 0 0 0 0 0 0 0 0 0 0 0 0 0 0 0 0 0 0 0 0 0 0 0 0 0 0 0 0 0 0 0 0 0 0 0 0 0 0 0 0 0 0 0 0 0 0 0 0
0 0 0 0 0 0 0 0 0 0 0 0 0 0 0 0 0 0 0 0 0 0 0 0 0 0 0 0 0 0 0 0 0 0 0 0 0 0 0 0 0 0 0 0 0 0 0 0 0
0 0 0 0 0 0 0 0 0 0 0 0 0 0 0 0 0 0 0 0 0 0 0 0 0 0 0 0 0 0 0 0 0 0 0 0 0 0 0 0 0 0 0 0 0 0 0 0 0
0 0 0 0 0 0 0 0 0 0 0 0 0 0 0 0 0 0 0 0 0 0 0 0 0 0 0 0 0 0 0 0 0 0 0 0 0 0 0 0 0 0 0 0 0 0 0 0 0
0 0 0 0 0 0 0 0 0 0 0 0 0 0 0 0 0 0 0 0 0 0 0 0 0 0 0 0 0 0 0 0 0 0 0 0 0 0 0 0 0 0 0 0 0 0 0 0 0
0 0 0 0 0 0 0 0 0 0 0 0 0 0 0 0 0 0 0 0 0 0 0 0 0 0 0 0 0 0 0 0 0 0 0 0 0 0 0 0 0 0 0 0 0 0 0 0 0
0 0 0 0 0 0 0 0 0 0 0 0 0 0 0 0 0 0 0 0 0 0 0 0 0 0 0 0 0 0 0 0 0 0 0 0 0 0 0 0 0 0 0 0 0 0 0 0 0
0 0 0 0 0 0 0 0 0 0 0 0 0 0 0 0 0 0 0 0 0 0 0 0 0 0 0 0 0 0 0 0 0 0 0 0 0 0 0 0 0 0 0 0 0 0 0 0 0
0 0 0 0 0 0 0 0 0 0 0 0 0 0 0 0 0 0 0 0 0 0 0 0 0 0 0 0 0 0 0 0 0 0 0 0 0 0 0 0 0 0 0 0 0 0 0 0 0
0 0 0 0 0 0 0 0 0 0 0 0 0 0 0 0 0 0 0 0 0 0 0 0 0 0 0 0 0 0 0 0 0 0 0 0 0 0 0 0 0 0 0 0 0 0 0 0 0
0 0 0 0 0 0 0 0 0 0 0 0 0 0 0 0 0 0 0 0 0 0 0 0 0 0 0 0 0 0 0 0 0 0 0 0 0 0 0 0 0 0 0 0 0 0 0 0 0
0 0 0 0 0 0 0 0 0 0 0 0 0 0 0 0 0 0 0 0 0 0 0 0 0 0 0 0 0 0 0 0 0 0 0 0 0 0 0 0 0 0 0 0 0 0 0 0 0
0 0 0 0 0 0 0 0 0 0 0 0 0 0 0 0 0 0 0 0 0 0 0 0 0 0 0 0 0 0 0 0 0 0 0 0 0 0 0 0 0 0 0 0 0 0 0 0 0
0 0 0 0 0 0 0 0 0 0 0 0 0 0 0 0 0 0 0 0 0 0 0 0 0 0 0 0 0 0 0 0 0 0 0 0 0 0 0 0 0 0 0 0 0 0 0 0 0
0 0 0 0 0 0 0 0 0 0 0 0 0 0 0 0 0 0 0 0 0 0 0 0 0 0 0 0 0 0 0 0 0 0 0 0 0 0 0 0 0 0 0 0 0 0 0 0 0
0 0 0 0 0 0 0 0 0 0 0 0 0 0 0 0 0 0 0 0 0 0 0 0 0 0 0 0 0 0 0 0 0 0 0 0 0 0 0 0 0 0 0 0 0 0 0 0 0
Wind_Speed
4 2 3 5 7 5 4 5 3 3 3 2 4 6 6 8 8 5 1 5 6 8 6 7 10 13 14 13 12 12 11 11 11 11 11 10 9 8 8 8 9 9 10 10 11 11 11 11 11
2 2 5 6 6 1 6 5 4 4 1 2 2 3 3 6 4 2 2 6 6 7 6 6 9 12 13 13 13 12 12 12 12 11 10 9 8 8 7 8 8 9 9 9 9 10 10 10 11
2 5 5 5 3 5 6 5 5 2 1 1 2 3 4 5 4 4 5 7 6 6 6 6 9 12 13 13 12 12 12 11 11 10 9 9 8 8 8 8 8 9 9 9 9 9 9 10 10
4 6 6 4 4 7 7 6 1 1 0 2 2 4 4 3 3 3 5 9 8 6 5 6 10 12 13 12 12 12 11 10 10 10 9 9 9 9 9 9 9 9 9 9 9 9 10 11 11
5 5 4 2 6 7 6 6 3 4 3 2 2 4 6 2 1 4 7 9 9 7 5 6 9 11 12 12 12 12 11 11 11 10 10 10 10 9 9 9 9 9 9 10 10 10 11 11 12
5 5 3 3 7 7 7 4 4 4 3 1 3 3 7 1 3 4 6 7 7 7 6 5 10 10 11 12 13 13 12 12 12 12 11 11 11 10 10 10 10 10 10 10 10 10 11 11 12
5 4 2 3 5 7 5 2 3 3 3 4 4 3 5 2 3 5 5 5 5 5 6 5 5 7 10 11 11 12 13 13 13 13 12 12 11 11 11 10 11 11 11 11 10 10 10 11 12
5 4 1 3 4 6 3 2 3 4 5 2 6 6 6 1 5 6 5 4 4 4 5 6 5 5 5 7 10 11 12 12 13 12 11 10 11 11 10 9 11 12 11 11 11 10 10 11 11
4 5 2 5 5 6 2 2 2 2 3 3 5 6 3 5 7 7 4 3 4 6 6 6 6 6 5 5 7 9 11 12 12 10 12 9 5 5 5 7 11 12 11 11 11 11 10 10 10
5 4 9 7 6 4 3 3 3 2 4 5 6 6 4 6 8 10 11 12 13 13 10 7 7 7 6 5 5 4 4 6 6 5 7 5 4 3 4 7 9 11 10 11 11 10 9 7 4
6 8 7 6 6 4 4 4 3 4 9 11 11 9 6 8 9 12 14 12 16 12 9 9 8 8 8 5 5 3 3 4 5 6 7 5 4 3 3 3 5 5 7 5 7 6 4 3 3
5 8 6 5 4 4 4 4 4 8 15 10 10 6 7 11 15 18 19 17 11 9 11 10 9 8 8 7 6 5 4 4 4 6 7 6 4 3 3 3 3 3 2 4 3 3 3 4 4
6 7 5 7 8 7 6 8 7 12 18 10 7 7 10 13 16 16 15 11 9 12 12 12 11 12 10 8 7 7 7 7 6 6 6 7 6 5 4 3 3 3 3 3 3 3 3 3 3
5 5 6 6 6 5 7 10 5 19 12 9 10 12 12 14 15 12 13 14 14 17 16 14 15 14 12 11 10 9 8 7 6 7 8 8 6 6 5 5 4 3 3 3 3 4 3 2 2
3 6 10 7 7 6 4 10 13 20 6 10 12 11 11 13 12 17 18 18 18 17 14 16 17 15 14 13 12 9 8 8 8 8 9 9 8 8 7 5 4 4 4 4 3 3 3 2 2
2 3 8 8 4 4 7 13 20 9 4 12 12 11 10 12 14 18 17 17 16 14 14 16 15 17 18 16 13 10 9 9 9 8 9 10 10 10 8 6 5 5 4 3 4 3 3 2 2
2 5 9 12 6 5 8 13 15 5 6 11 12 12 11 12 13 16 17 18 17 17 16 17 18 19 19 16 12 10 9 10 8 8 8 10 11 11 9 7 6 6 4 3 3 2 2 2 2
10 9 8 10 7 4 8 14 16 10 7 11 13 13 13 15 20 16 14 16 16 15 15 16 18 18 15 11 7 6 7 8 8 9 10 12 11 12 10 7 7 7 5 4 3 3 2 2 2
6 8 12 14 10 6 14 20 19 17 14 16 16 17 19 20 22 17 14 11 11 12 15 18 19 18 15 14 13 13 15 13 12 11 12 14 13 13 11 8 8 8 7 6 6 4 3 2 2
7 11 16 15 10 7 14 23 16 16 18 20 22 21 21 19 19 18 13 9 11 13 16 17 19 18 18 18 15 8 8 8 8 7 10 12 13 14 12 12 10 9 7 7 7 5 4 3 2
10 11 14 14 9 7 12 17 11 13 14 17 19 19 20 20 21 20 15 11 9 12 14 14 17 18 19 15 8 5 5 4 6 9 11 12 13 14 13 14 12 11 10 10 10 7 7 5 2
13 12 14 12 8 7 3 18 7 12 12 14 19 18 18 17 17 17 15 12 7 9 8 12 15 17 17 16 15 17 16 17 18 13 13 13 15 15 14 15 14 13 10 9 10 8 5 6 5
12 5 6 6 6 8 4 11 18 9 8 13 17 16 16 15 14 12 10 8 7 6 8 11 14 16 17 18 21 21 19 15 8 7 13 14 13 14 15 15 14 13 11 11 10 9 7 5 6
5 2 2 3 1 11 8 10 25 8 10 9 11 12 13 12 11 8 6 5 6 5 5 6 10 13 14 18 19 21 21 15 12 12 15 14 10 12 15 15 14 14 12 12 11 11 10 6 5
4 3 4 5 2 13 5 10 16 5 7 8 8 9 10 9 8 8 9 8 8 8 6 5 8 11 11 15 18 20 19 16 17 16 16 15 12 13 18 16 15 14 12 12 11 11 10 9 8
7 9 9 8 9 9 3 15 12 6 4 4 6 8 9 11 8 8 8 8 8 8 7 6 8 10 10 14 16 13 13 11 12 13 13 15 14 15 16 17 16 15 14 14 12 11 10 9 8
5 8 8 7 8 12 13 13 14 3 7 8 8 8 9 10 9 8 8 8 8 8 7 7 8 9 9 12 12 12 13 14 13 12 11 11 10 10 15 17 16 15 15 15 14 10 12 10 9
7 4 3 5 7 12 14 18 20 10 8 7 7 8 9 9 9 10 10 10 9 8 7 6 6 8 8 10 12 12 13 14 12 10 14 13 12 12 15 17 16 15 15 15 14 11 11 11 10
6 5 7 6 7 8 10 15 9 8 6 7 9 8 9 10 11 10 10 11 11 10 9 7 7 7 7 9 10 12 12 11 11 11 13 13 12 14 17 18 17 17 17 15 15 13 14 14 12
10 13 12 13 15 12 14 16 12 13 12 11 12 10 10 11 13 14 15 15 16 16 14 12 10 8 8 8 9 11 10 10 12 14 13 13 15 16 17 17 18 18 18 17 18 17 16 16 16
Wind_Direction
354 36 65 55 49 44 270 253 238 260 234 195 161 167 181 180 175 217 248 147 144 148 166 169 169 175 173 170 168 167 162 152 140 127 116 109 105 100 94 86 81 77 73 68 63 58 52 47 44
345 25 53 58 79 348 271 249 245 238 246 123 133 149 183 229 222 228 191 186 156 150 153 155 162 167 168 165 163 160 155 145 134 126 122 122 120 115 108 101 93 87 81 75 69 64 58 52 48
41 47 75 72 123 200 249 243 232 245 155 170 210 224 212 226 214 220 203 166 153 149 149 156 162 165 164 162 160 155 148 142 138 136 140 142 140 132 123 114 105 96 89 82 76 72 67 61 56
64 43 53 73 240 233 233 253 227 250 219 220 222 263 255 239 210 203 159 151 148 153 153 163 166 168 166 165 161 157 155 154 153 154 156 154 148 139 130 122 112 103 96 89 84 80 74 69 63
57 70 54 332 263 258 251 262 225 211 212 212 192 266 273 233 86 133 148 155 155 157 162 171 169 174 174 174 172 169 169 167 166 166 163 158 151 144 136 128 119 110 102 96 90 83 76 71 67
55 64 83 266 270 281 274 251 165 200 230 216 191 258 262 125 138 165 157 156 156 157 163 173 175 179 181 183 182 179 178 174 171 169 165 160 155 150 141 133 124 116 108 100 92 84 78 73 68
101 101 187 252 285 294 289 140 183 211 235 228 190 216 271 217 183 153 147 142 153 162 164 176 179 181 186 189 186 183 180 176 173 170 165 160 156 150 142 137 131 123 114 105 96 88 80 74 69
118 101 256 268 264 275 279 188 245 204 239 230 167 203 259 260 124 119 120 139 169 188 185 181 176 174 179 185 184 180 176 174 172 166 153 148 149 145 142 140 137 129 120 112 104 94 82 75 71
88 80 243 237 225 256 275 250 253 196 251 241 215 222 237 112 119 122 138 187 208 213 207 190 180 174 169 169 174 172 174 174 170 153 144 128 115 122 134 148 140 133 126 118 108 100 90 75 68
99 167 228 221 210 238 281 244 260 253 268 258 259 246 142 148 162 172 186 199 205 209 205 196 186 176 168 167 159 156 159 162 148 138 133 122 121 133 134 135 126 124 120 116 110 98 87 76 55
168 203 230 240 232 248 264 254 230 217 257 233 233 240 175 180 195 201 205 207 210 206 201 198 190 179 173 168 160 156 147 142 142 143 139 136 131 128 107 93 90 84 87 82 92 86 75 75 71
198 237 229 244 221 231 242 264 250 213 238 231 225 231 176 197 206 210 213 216 209 199 203 196 188 184 183 173 170 166 161 160 162 160 154 149 148 147 141 125 121 111 108 115 107 106 99 86 78
219 255 242 241 256 256 264 256 256 252 250 259 254 237 215 213 218 220 222 223 207 211 207 198 191 192 186 180 180 179 180 178 171 165 168 164 163 163 154 146 142 140 137 139 136 128 117 101 84
240 257 278 268 248 239 232 261 242 260 254 263 250 241 231 227 226 226 226 225 215 216 211 199 198 197 190 191 191 189 187 179 173 177 177 172 167 162 158 155 157 160 159 153 145 138 127 112 99
302 302 300 263 231 240 189 274 243 251 275 270 263 253 246 239 230 229 227 225 221 218 209 200 200 196 195 197 195 190 188 183 186 185 179 176 171 167 161 160 167 169 159 149 135 127 117 107 91
346 292 285 274 221 205 161 250 261 264 252 266 270 266 258 253 235 237 233 229 223 215 205 202 198 197 200 200 196 194 190 189 191 185 182 180 175 168 163 166 171 164 157 154 147 140 115 91 77
313 255 255 285 250 194 192 241 267 286 233 260 273 275 270 271 259 241 233 229 223 216 207 199 198 199 200 200 195 192 186 192 190 184 185 184 178 172 169 171 165 158 156 161 158 134 139 122 91
233 232 246 257 271 192 227 249 266 280 258 259 267 274 273 269 266 256 235 227 223 215 207 202 199 200 194 189 182 179 186 193 190 190 190 183 181 176 169 166 164 159 159 168 166 144 125 118 116
229 249 260 260 263 261 253 260 263 269 269 265 263 263 264 266 265 262 251 230 216 209 205 203 200 198 186 188 190 192 201 197 197 197 191 186 181 176 173 170 166 169 175 175 164 147 142 131 143
256 268 270 277 270 254 268 270 264 253 254 256 260 261 260 259 266 266 260 239 216 213 210 207 204 197 193 198 197 193 185 193 197 190 188 187 181 177 178 173 175 175 169 171 180 165 145 137 161
237 233 253 260 299 298 290 279 229 242 241 252 256 257 260 260 266 273 272 256 229 223 216 210 208 203 202 196 178 150 134 119 172 193 193 191 185 182 182 179 175 177 178 185 188 181 157 149 158
253 230 242 267 294 282 272 293 230 220 235 246 254 259 261 264 264 268 274 282 267 243 218 211 207 205 200 187 187 185 193 198 198 192 189 183 186 186 184 179 179 179 182 184 188 184 175 146 151
234 248 243 256 249 277 194 266 281 176 223 243 248 255 260 264 268 276 288 295 284 247 216 211 208 207 199 195 197 197 205 208 184 168 177 181 185 187 185 181 182 182 184 185 182 182 186 174 156
225 12 7 54 101 271 203 216 280 160 204 229 245 253 263 275 286 297 310 311 307 291 253 224 212 213 202 200 202 203 207 196 177 178 182 185 185 188 189 184 186 186 185 185 184 184 187 187 170
153 140 330 319 263 254 178 221 264 211 207 204 233 261 275 283 295 313 321 319 313 306 285 245 221 220 205 203 208 211 211 201 197 190 187 184 183 192 194 188 188 188 186 183 179 181 188 187 183
186 168 191 228 245 271 223 244 257 220 258 273 271 274 288 291 303 306 300 300 300 299 286 252 230 224 207 206 211 211 208 206 206 198 194 192 194 195 187 189 189 186 182 182 180 184 187 186 188
177 209 213 223 258 276 265 267 284 217 275 273 274 283 289 298 308 305 304 302 301 302 290 258 239 231 216 212 210 210 207 209 209 198 194 195 193 184 182 187 188 185 183 182 179 186 185 183 189
206 214 138 189 226 248 263 269 271 282 264 281 290 296 297 305 314 316 316 315 316 310 303 289 253 238 225 215 214 216 213 213 209 196 199 196 188 179 179 184 187 185 184 183 183 185 182 180 184
200 199 207 218 214 231 246 256 265 295 309 313 311 312 312 314 318 322 327 335 341 342 336 319 295 271 249 229 222 221 217 211 206 206 204 197 186 181 182 184 185 186 187 185 187 188 181 184 183
222 224 218 237 244 236 251 258 288 305 317 323 326 334 338 345 352 356 359 0 1 358 354 348 333 308 281 258 237 229 222 210 210 213 206 197 193 188 185 182 185 188 189 189 190 190 186 187 186